DW9246 Weather Reports


Display with metric or nautical units.
time (UTC)temp
F
wind
direction
speed
MPH
gust
MPH
rain 1hr
in
rain 24hr
in
rain mn
in
humidity
%
barometer
mb
20181016151016 68 273 0.0 4.0 0.00 0.01 0.01 72 1016.0
20181016150015 68 0 0.0 0.0 0.00 0.01 0.01 74 1016.1
20181016145015 67 0 0.0 0.0 0.00 0.01 0.01 75 1016.1
20181016144015 66 0 0.0 0.0 0.00 0.01 0.01 78 1016.0
20181016143015 66 0 0.0 0.0 0.00 0.01 0.01 78 1016.0
20181016142016 66 0 0.0 0.0 0.00 0.01 0.01 79 1016.0
20181016141020 65 0 0.0 0.0 0.00 0.01 0.01 81 1016.0
20181016140015 65 0 0.0 0.0 0.01 0.01 0.01 83 1016.0
20181016135014 65 80 0.0 1.0 0.01 0.01 0.01 84 1016.0
20181016134014 64 0 0.0 0.0 0.01 0.01 0.01 83 1015.9
20181016133014 64 0 0.0 0.0 0.01 0.01 0.01 82 1016.0
20181016132013 64 0 0.0 0.0 0.01 0.01 0.01 82 1015.9
20181016131015 64 0 0.0 0.0 0.01 0.01 0.01 81 1016.0
20181016130016 65 231 0.0 5.0 0.00 0.00 0.00 80 1016.0
20181016125015 65 220 4.0 10.0 0.00 0.00 0.00 79 1015.9
20181016124015 65 231 4.0 9.0 0.00 0.00 0.00 76 1016.0
20181016123015 66 244 2.0 10.0 0.00 0.00 0.00 74 1016.0
20181016122014 66 270 3.0 6.0 0.00 0.00 0.00 74 1016.0
20181016121015 66 213 2.0 6.0 0.00 0.00 0.00 73 1016.0
20181016120015 66 214 4.0 6.0 0.00 0.00 0.00 71 1016.0
20181016115015 67 249 2.0 7.0 0.00 0.00 0.00 70 1016.2
20181016114015 67 237 3.0 9.0 0.00 0.00 0.00 71 1016.1
20181016113015 67 201 1.0 6.0 0.00 0.00 0.00 68 1016.2
20181016112016 67 0 0.0 0.0 0.00 0.00 0.00 68 1016.3
20181016111015 67 0 0.0 0.0 0.00 0.00 0.00 67 1016.3
20181016110015 67 0 0.0 0.0 0.00 0.00 0.00 69 1016.3
20181016105015 67 0 0.0 0.0 0.00 0.00 0.00 67 1016.3
20181016104015 67 127 1.0 3.0 0.00 0.00 0.00 67 1016.2
20181016103016 67 140 1.0 7.0 0.00 0.00 0.00 66 1016.2
20181016102015 67 126 4.0 8.0 0.00 0.00 0.00 63 1016.0
20181016101015 67 114 2.0 8.0 0.00 0.00 0.00 66 1016.1
20181016100015 68 118 1.0 7.0 0.00 0.00 0.00 66 1016.0
20181016095016 67 59 1.0 8.0 0.00 0.00 0.00 67 1015.9
20181016094015 68 58 1.0 7.0 0.00 0.00 0.00 65 1015.9
20181016093015 67 83 2.0 6.0 0.00 0.00 0.00 67 1015.9
20181016092015 67 74 1.0 6.0 0.00 0.00 0.00 69 1015.9
20181016091015 66 45 1.0 6.0 0.00 0.00 0.00 71 1015.9
20181016090015 66 57 2.0 6.0 0.00 0.00 0.00 70 1015.8
20181016085014 66 62 1.0 7.0 0.00 0.00 0.00 73 1015.8
20181016084016 65 92 0.0 1.0 0.00 0.00 0.00 77 1015.7
20181016083015 64 0 0.0 0.0 0.00 0.00 0.00 77 1015.6
20181016082015 64 0 0.0 0.0 0.00 0.00 0.00 74 1015.4
20181016081016 64 0 0.0 0.0 0.00 0.00 0.00 75 1015.5
20181016080015 63 0 0.0 0.0 0.00 0.00 0.00 75 1015.4
20181016075014 63 0 0.0 0.0 0.00 0.01 0.00 76 1015.3
20181016074014 63 0 0.0 0.0 0.00 0.01 0.00 76 1015.3
20181016073015 63 0 0.0 0.0 0.00 0.01 0.00 75 1015.2
20181016072015 63 0 0.0 0.0 0.00 0.01 0.00 75 1015.1
20181016071015 63 0 0.0 0.0 0.00 0.01 0.00 75 1015.0
20181016070015 63 19 0.0 4.0 0.00 0.01 0.00 75 1014.8
20181016065014 63 43 0.0 1.0 0.00 0.01 0.00 76 1014.7
20181016064015 63 0 0.0 0.0 0.00 0.01 0.00 76 1014.6
20181016063014 63 0 0.0 0.0 0.00 0.01 0.00 76 1014.3
20181016062014 62 0 0.0 0.0 0.00 0.01 0.00 77 1014.2
20181016061016 62 0 0.0 0.0 0.00 0.01 0.00 78 1014.0
20181016060017 62 0 0.0 0.0 0.00 0.01 0.00 79 1013.8
20181016055012 62 0 0.0 0.0 0.00 0.01 0.00 79 1013.7
20181016054013 62 0 0.0 0.0 0.00 0.01 0.00 79 1013.4
20181016053013 62 0 0.0 0.0 0.00 0.01 0.00 79 1013.3
20181016052014 62 0 0.0 0.0 0.00 0.01 0.00 80 1013.2
20181016051014 62 0 0.0 0.0 0.00 0.01 0.00 80 1013.2
20181016050012 62 0 0.0 0.0 0.00 0.01 0.00 80 1013.2
20181016045013 62 0 0.0 0.0 0.00 0.01 0.00 80 1013.0
20181016044015 62 0 0.0 0.0 0.00 0.01 0.00 79 1012.9
20181016043011 62 0 0.0 0.0 0.00 0.01 0.00 80 1012.8
20181016042013 62 0 0.0 0.0 0.00 0.01 0.00 80 1012.7
20181016041014 62 0 0.0 0.0 0.00 0.01 0.00 80 1012.7
20181016040015 61 0 0.0 0.0 0.00 0.01 0.00 80 1012.7
20181016035014 61 0 0.0 0.0 0.00 0.01 0.00 82 1012.7
20181016034013 60 0 0.0 0.0 0.00 0.01 0.00 83 1012.6
20181016033014 60 0 0.0 0.0 0.00 0.02 0.00 83 1012.6
20181016032014 61 0 0.0 0.0 0.00 0.02 0.00 82 1012.4
20181016031015 61 0 0.0 0.0 0.00 0.02 0.00 80 1012.5
20181016030014 61 15 0.0 4.0 0.00 0.02 0.00 80 1012.3
20181016025014 61 0 0.0 0.0 0.00 0.02 0.00 81 1012.3
20181016024014 60 0 0.0 0.0 0.00 0.02 0.00 82 1012.3
20181016023014 60 0 0.0 0.0 0.00 0.02 0.00 83 1012.3
20181016022014 60 0 0.0 0.0 0.00 0.02 0.00 84 1012.4
20181016021015 59 0 0.0 0.0 0.00 0.02 0.00 84 1012.2
20181016020013 59 0 0.0 0.0 0.00 0.02 0.00 83 1012.2
20181016015014 59 0 0.0 0.0 0.00 0.02 0.00 83 1012.1
20181016014015 60 0 0.0 0.0 0.00 0.02 0.00 82 1012.2
20181016013015 61 41 0.0 4.0 0.00 0.02 0.00 80 1012.2
20181016012015 61 0 0.0 0.0 0.00 0.02 0.00 80 1012.3
20181016011014 61 0 0.0 0.0 0.00 0.02 0.00 81 1012.4
20181016010014 60 0 0.0 0.0 0.00 0.02 0.00 82 1012.5
20181016005013 61 0 0.0 0.0 0.00 0.02 0.00 81 1012.4
20181016004014 61 0 0.0 0.0 0.00 0.02 0.00 81 1012.4
20181016003011 62 0 0.0 0.0 0.00 0.02 0.00 79 1012.4
20181016002014 62 0 0.0 0.0 0.00 0.02 0.00 79 1012.5
20181016001013 62 0 0.0 0.0 0.00 0.02 0.00 79 1012.3
20181016000017 62 0 0.0 0.0 0.00 0.02 0.00 79 1012.4
20181015235014 62 0 0.0 0.0 0.00 0.02 0.02 79 1012.3
20181015234011 62 0 0.0 0.0 0.00 0.02 0.02 79 1012.3
20181015233014 62 0 0.0 0.0 0.00 0.05 0.02 80 1012.4
20181015232014 62 0 0.0 0.0 0.00 0.06 0.02 79 1012.4
20181015231011 62 0 0.0 0.0 0.00 0.06 0.02 78 1012.4
20181015230013 62 323 0.0 4.0 0.00 0.06 0.02 78 1012.3
20181015225014 62 321 0.0 6.0 0.00 0.06 0.02 78 1012.2
20181015224012 62 0 0.0 0.0 0.00 0.06 0.02 77 1012.3
20181015223014 62 0 0.0 0.0 0.00 0.06 0.02 77 1012.2
20181015222014 62 0 0.0 0.0 0.00 0.09 0.02 77 1012.2
20181015221014 62 0 0.0 0.0 0.00 0.10 0.02 77 1012.2
20181015220011 62 321 0.0 4.0 0.00 0.10 0.02 77 1012.1
20181015215013 62 0 0.0 0.0 0.00 0.10 0.02 78 1012.1
20181015214014 62 0 0.0 0.0 0.00 0.10 0.02 77 1012.1
20181015213014 61 0 0.0 0.0 0.00 0.10 0.02 78 1012.0
20181015212015 61 0 0.0 0.0 0.00 0.10 0.02 77 1012.0
20181015211013 61 326 1.0 7.0 0.00 0.11 0.02 77 1011.8
20181015210012 61 327 2.0 8.0 0.00 0.12 0.02 77 1011.8
20181015205013 61 326 2.0 8.0 0.00 0.17 0.02 77 1011.6
20181015204012 62 324 1.0 7.0 0.00 0.31 0.02 76 1011.5
20181015203013 62 329 0.0 6.0 0.00 0.41 0.02 76 1011.5
20181015202013 62 323 0.0 4.0 0.00 0.46 0.02 76 1011.2
20181015201013 62 319 0.0 3.0 0.00 0.54 0.02 76 1011.3
20181015200014 62 320 0.0 2.0 0.00 0.61 0.02 76 1011.3
20181015195013 62 290 0.0 4.0 0.00 0.83 0.02 75 1011.3
20181015194013 62 0 0.0 0.0 0.00 1.08 0.02 76 1011.2
20181015193013 62 0 0.0 0.0 0.00 1.27 0.02 76 1011.1
20181015192012 61 0 0.0 0.0 0.00 1.53 0.02 78 1011.0
20181015191012 61 329 0.0 3.0 0.00 1.69 0.02 78 1010.8
20181015190014 62 0 0.0 0.0 0.00 1.74 0.02 78 1010.7
20181015185014 62 0 0.0 0.0 0.00 1.79 0.02 77 1010.7
20181015184013 63 0 0.0 0.0 0.00 1.84 0.02 75 1010.6
20181015183013 63 0 0.0 0.0 0.00 1.90 0.02 74 1010.6
20181015182012 63 0 0.0 0.0 0.00 1.91 0.02 73 1010.4
20181015181013 64 0 0.0 0.0 0.00 1.91 0.02 72 1010.3
20181015180013 64 234 0.0 5.0 0.00 1.91 0.02 71 1010.0
20181015175013 64 254 0.0 6.0 0.00 1.93 0.02 71 1010.0
20181015174013 64 0 0.0 0.0 0.00 1.94 0.02 71 1009.7
20181015173011 64 218 0.0 5.0 0.00 1.98 0.02 71 1009.6
20181015172014 65 223 0.0 5.0 0.00 2.00 0.02 70 1009.4
20181015171013 65 246 1.0 8.0 0.00 2.05 0.02 68 1009.3
20181015170013 65 226 2.0 8.0 0.00 2.12 0.02 66 1009.3
20181015165014 66 0 0.0 0.0 0.00 2.23 0.02 63 1009.1
20181015164011 66 0 0.0 0.0 0.00 2.39 0.02 63 1009.1
20181015163014 66 0 0.0 0.0 0.00 2.57 0.02 61 1008.9
20181015162014 66 0 0.0 0.0 0.00 2.65 0.02 64 1008.8
20181015161013 66 0 0.0 0.0 0.00 2.76 0.02 62 1008.8
20181015160013 66 283 1.0 8.0 0.00 2.80 0.02 61 1008.8
20181015155013 66 286 5.0 12.0 0.00 2.81 0.02 60 1008.7
20181015154013 66 282 8.0 14.0 0.00 2.82 0.02 60 1008.7
20181015153012 67 272 6.0 14.0 0.00 2.82 0.02 59 1008.6
20181015152013 67 270 7.0 15.0 0.00 2.82 0.02 59 1008.4